Location: Coffee Ditch
(40.9640°N, 122.7500°W)
Time: 15:26:38
(UTC+00:00)

CZ-2C R/B - Pass Details

Date: 08 September 2024
Orbit: 664 x 778 km, 98.4° (Epoch: 07 October)

Event Time Altitude Azimuth Distance (km) Brightness Sun altitude
Rises 12:40:59 0° 3° (N) 3,184 6.0 -12.6°
Reaches altitude 10° 12:43:31 10° 353° (N) 2,238 5.1 -12.2°
Maximum altitude 12:47:46 31° 293° (WNW) 1,258 3.2 -11.4°
Enters shadow 12:51:18 13° 236° (SW) 1,957 4.0 -10.8°
